Tiempo cada hora Almametevo

Hoy, 2 Agosto, Lunes

Tiempo Temperatura Precipitaciones Viento Presión Humedad
00:00 +18°C° 0 mm 2 mps 749 mmHg 71%
01:00 +18°C° 0 mm 2 mps 750 mmHg 71%
02:00 +18°C° 0 mm 2 mps 750 mmHg 71%
03:00 +18°C° 0 mm 2 mps 750 mmHg 70%
04:00 +19°C° 0 mm 2 mps 750 mmHg 70%
05:00 +19°C° 0 mm 2 mps 750 mmHg 70%
06:00 +20°C° 0 mm 2 mps 750 mmHg 70%
07:00 +21°C° 0 mm 2 mps 750 mmHg 66%
08:00 +24°C° 0 mm 2 mps 750 mmHg 62%
09:00 +25°C° 0 mm 2 mps 750 mmHg 58%
10:00 +27°C° 0 mm 3 mps 750 mmHg 53%
11:00 +29°C° 0 mm 3 mps 750 mmHg 47%
12:00 +31°C° 0 mm 3 mps 750 mmHg 42%
13:00 +32°C° 0 mm 4 mps 750 mmHg 41%
14:00 +33°C° 0 mm 4 mps 749 mmHg 40%
15:00 +33°C° 0 mm 4 mps 749 mmHg 39%
16:00 +31°C° 0 mm 3 mps 749 mmHg 45%
17:00 +30°C° 0 mm 3 mps 749 mmHg 50%
18:00 +28°C° 0 mm 2 mps 749 mmHg 56%
19:00 +27°C° 0 mm 2 mps 749 mmHg 58%
20:00 +26°C° 0 mm 2 mps 748 mmHg 60%
21:00 +25°C° 0 mm 2 mps 748 mmHg 62%
22:00 +24°C° 0 mm 2 mps 748 mmHg 63%
23:00 +23°C° 0 mm 2 mps 748 mmHg 64%

Mañana, 3 Agosto, Martes

Tiempo Temperatura Precipitaciones Viento Presión Humedad
00:00 +23°C° 0 mm 2 mps 748 mmHg 65%
01:00 +21°C° 0 mm 2 mps 748 mmHg 65%
02:00 +21°C° 0 mm 2 mps 748 mmHg 65%
03:00 +21°C° 0 mm 2 mps 748 mmHg 65%
04:00 +21°C° 0.2 mm 2 mps 748 mmHg 69%
05:00 +21°C° 0.2 mm 2 mps 748 mmHg 73%
06:00 +23°C° 0.2 mm 2 mps 748 mmHg 77%
07:00 +25°C° 0 mm 3 mps 748 mmHg 67%
08:00 +28°C° 0 mm 3 mps 748 mmHg 56%
09:00 +30°C° 0 mm 4 mps 747 mmHg 46%
10:00 +33°C° 0 mm 4 mps 747 mmHg 42%
11:00 +34°C° 0 mm 4 mps 747 mmHg 38%
12:00 +36°C° 0 mm 4 mps 747 mmHg 33%
13:00 +36°C° 0 mm 4 mps 747 mmHg 35%
14:00 +35°C° 0 mm 3 mps 746 mmHg 36%
15:00 +35°C° 0 mm 3 mps 746 mmHg 37%
16:00 +31°C° 0.3 mm 2 mps 746 mmHg 49%
17:00 +28°C° 0.3 mm 2 mps 746 mmHg 60%
18:00 +25°C° 0.3 mm 2 mps 747 mmHg 72%
19:00 +24°C° 0.8 mm 2 mps 747 mmHg 76%
20:00 +23°C° 0.8 mm 1 mps 747 mmHg 81%
21:00 +23°C° 0.8 mm 1 mps 747 mmHg 85%
22:00 +22°C° 0 mm 1 mps 747 mmHg 86%
23:00 +21°C° 0 mm 1 mps 747 mmHg 87%

Pasado mañana, 4 Agosto, Miércoles

Tiempo Temperatura Precipitaciones Viento Presión Humedad
00:00 +21°C° 0 mm 1 mps 747 mmHg 89%
01:00 +20°C° 0 mm 1 mps 747 mmHg 90%
02:00 +20°C° 0 mm 1 mps 747 mmHg 92%
03:00 +19°C° 0 mm 1 mps 747 mmHg 93%
04:00 +20°C° 0 mm 1 mps 748 mmHg 92%
05:00 +21°C° 0 mm 1 mps 748 mmHg 91%
06:00 +20°C° 0 mm 2 mps 748 mmHg 89%
07:00 +21°C° 0.4 mm 1 mps 748 mmHg 91%
08:00 +21°C° 0.4 mm 1 mps 748 mmHg 92%
09:00 +21°C° 0.4 mm 1 mps 748 mmHg 94%
10:00 +20°C° 1.1 mm 2 mps 748 mmHg 93%
11:00 +20°C° 1.1 mm 2 mps 748 mmHg 92%
12:00 +20°C° 1.1 mm 2 mps 748 mmHg 91%
13:00 +21°C° 0.3 mm 3 mps 748 mmHg 85%
14:00 +22°C° 0.3 mm 3 mps 749 mmHg 78%
15:00 +24°C° 0.3 mm 3 mps 749 mmHg 72%
16:00 +24°C° 0 mm 2 mps 749 mmHg 71%
17:00 +24°C° 0 mm 2 mps 749 mmHg 70%
18:00 +24°C° 0 mm 2 mps 749 mmHg 69%
19:00 +22°C° 0 mm 1 mps 749 mmHg 73%
20:00 +21°C° 0 mm 1 mps 749 mmHg 77%
21:00 +20°C° 0 mm 1 mps 749 mmHg 82%
22:00 +19°C° 0 mm 1 mps 750 mmHg 83%
23:00 +19°C° 0 mm 1 mps 750 mmHg 85%

5 Agosto, Jueves

Tiempo Temperatura Precipitaciones Viento Presión Humedad
00:00 +18°C° 0 mm 1 mps 750 mmHg 87%
01:00 +18°C° 0 mm 1 mps 750 mmHg 87%
02:00 +18°C° 0 mm 1 mps 750 mmHg 86%
03:00 +17°C° 0 mm 2 mps 750 mmHg 85%
04:00 +17°C° 0 mm 2 mps 751 mmHg 83%
05:00 +17°C° 0 mm 2 mps 751 mmHg 81%
06:00 +17°C° 0 mm 2 mps 751 mmHg 79%
07:00 +19°C° 0 mm 3 mps 751 mmHg 72%
08:00 +20°C° 0 mm 3 mps 752 mmHg 64%
09:00 +22°C° 0 mm 3 mps 752 mmHg 57%
10:00 +23°C° 0 mm 4 mps 752 mmHg 52%
11:00 +25°C° 0 mm 4 mps 752 mmHg 47%
12:00 +25°C° 0 mm 4 mps 752 mmHg 43%
13:00 +25°C° 0 mm 4 mps 752 mmHg 42%
14:00 +25°C° 0 mm 4 mps 752 mmHg 41%
15:00 +23°C° 0 mm 4 mps 752 mmHg 40%
16:00 +23°C° 0 mm 4 mps 752 mmHg 43%
17:00 +22°C° 0 mm 3 mps 752 mmHg 46%
18:00 +21°C° 0 mm 3 mps 752 mmHg 49%
19:00 +20°C° 0 mm 2 mps 753 mmHg 52%
20:00 +19°C° 0 mm 2 mps 753 mmHg 55%
21:00 +18°C° 0 mm 2 mps 753 mmHg 58%
22:00 +17°C° 0 mm 2 mps 753 mmHg 60%
23:00 +16°C° 0 mm 2 mps 753 mmHg 63%

6 Agosto, Viernes

Tiempo Temperatura Precipitaciones Viento Presión Humedad
00:00 +15°C° 0 mm 2 mps 753 mmHg 66%
01:00 +14°C° 0 mm 2 mps 753 mmHg 67%
02:00 +14°C° 0 mm 2 mps 753 mmHg 68%
03:00 +13°C° 0 mm 2 mps 753 mmHg 69%
04:00 +14°C° 0 mm 2 mps 754 mmHg 68%
05:00 +14°C° 0 mm 2 mps 754 mmHg 66%
06:00 +15°C° 0 mm 2 mps 754 mmHg 64%
07:00 +17°C° 0 mm 3 mps 754 mmHg 56%
08:00 +18°C° 0 mm 3 mps 755 mmHg 48%
09:00 +20°C° 0 mm 4 mps 755 mmHg 41%
10:00 +21°C° 0 mm 4 mps 755 mmHg 38%
11:00 +21°C° 0 mm 5 mps 755 mmHg 36%
12:00 +22°C° 0 mm 5 mps 754 mmHg 33%
13:00 +22°C° 0 mm 5 mps 754 mmHg 33%
14:00 +22°C° 0 mm 5 mps 754 mmHg 33%
15:00 +22°C° 0 mm 4 mps 754 mmHg 33%
16:00 +21°C° 0 mm 4 mps 754 mmHg 38%
17:00 +20°C° 0 mm 3 mps 754 mmHg 43%
18:00 +19°C° 0 mm 3 mps 754 mmHg 47%
19:00 +18°C° 0 mm 2 mps 754 mmHg 51%
20:00 +16°C° 0 mm 2 mps 754 mmHg 55%
21:00 +15°C° 0 mm 2 mps 754 mmHg 59%
22:00 +14°C° 0 mm 2 mps 754 mmHg 59%
23:00 +14°C° 0 mm 2 mps 754 mmHg 60%

7 Agosto, Sábado

Tiempo Temperatura Precipitaciones Viento Presión Humedad
00:00 +13°C° 0 mm 2 mps 754 mmHg 61%
01:00 +12°C° 0 mm 2 mps 754 mmHg 64%
02:00 +12°C° 0 mm 2 mps 755 mmHg 68%
03:00 +10°C° 0 mm 2 mps 755 mmHg 71%
04:00 +12°C° 0 mm 2 mps 755 mmHg 70%
05:00 +13°C° 0 mm 2 mps 755 mmHg 70%
06:00 +13°C° 0 mm 2 mps 755 mmHg 69%
07:00 +14°C° 0 mm 3 mps 755 mmHg 60%
08:00 +17°C° 0 mm 4 mps 755 mmHg 51%
09:00 +17°C° 0 mm 5 mps 755 mmHg 42%
10:00 +19°C° 0 mm 6 mps 754 mmHg 40%
11:00 +20°C° 0 mm 6 mps 754 mmHg 38%
12:00 +21°C° 0 mm 6 mps 754 mmHg 36%
13:00 +21°C° 0 mm 6 mps 754 mmHg 36%
14:00 +22°C° 0 mm 6 mps 754 mmHg 35%
15:00 +22°C° 0 mm 6 mps 754 mmHg 35%
16:00 +21°C° 0 mm 5 mps 754 mmHg 38%
17:00 +21°C° 0 mm 4 mps 754 mmHg 42%
18:00 +20°C° 0 mm 4 mps 755 mmHg 46%
19:00 +18°C° 0 mm 3 mps 755 mmHg 53%
20:00 +16°C° 0 mm 3 mps 755 mmHg 59%
21:00 +14°C° 0 mm 2 mps 755 mmHg 66%
22:00 +13°C° 0 mm 2 mps 755 mmHg 70%
23:00 +13°C° 0 mm 2 mps 756 mmHg 74%
Mostrar más

Necesitamos Su Consentimiento

Meteoprog y nuestros Proveedores de Servicios pueden almacenar y acceder a sus datos personales como cookies, identificadores de dispositivo u otras tecnologías similares de su dispositivo y procesar dichos datos para personalizar contenido y anuncios, además de ofrecer funciones de redes sociales y analizar el tráfico.

  • Almacenar y/o acceder a información en su dispositivo

    Se puede almacenar o acceder a cookies, identificadores de dispositivo u otra información de su dispositivo para los fines anteriormente indicados.

  • Anuncios y contenido personalizados, medición de anuncios y contenido, percepciones del público, y desarrollo de productos

    Los anuncios y el contenido pueden personalizarse en base a su perfil. Se pueden añadir más datos para personalizar mejor los anuncios y contenidos. Se puede medir el rendimiento de los anuncios y contenidos. Se puede obtener la percepción sobre el público que ha visto los anuncios y contenidos. Dichos datos pueden usarse para desarrollar o mejorar la experiencia del usuario, sistemas y software.

Al hacer clic en ‘Estoy De Acuerdo’ usted permitirá el uso de las cookies, identificadores de dispositivo, balizas web u otras tecnologías similares indicadas. Su configuración puede cambiarse desde el navegador de su dispositivo.

Para ciertos fines, los intereses legítimos pueden ser considerados por encima del consentimiento. Puede leer más sobre ello en nuestra Política de Privacidad y Cookies.